Regional Weather Roundup
Issued by NWS

Home | Current Version | Previous Version | Graphics & Text | Print | Product List | Glossary On
Versions: 1 2 3 4 5 6 7 8 9 10 11 12 13 14 15 16 17 18 19 20 21 22 23 24 25 26 27 28 29 30 31 32 33 34 35 36 37 38 39 40 41 42 43 44 45 46 47 48 49 50
000
ASUS43 KLMK 242302
RWRKY
KENTUCKY REGIONAL WEATHER ROUNDUP
NATIONAL WEATHER SERVICE LOUISVILLE KY
700 PM EDT SUN JUL 24 2016

NOTE "FAIR" INDICATES FEW OR NO CLOUDS BELOW 12,000 FEET
WITH NO SIGNIFICANT WEATHER AND/OR OBSTRUCTIONS TO VISIBILITY.

KYZ001>023-026-027-061>063-070>075-250000-
WESTERN AND SOUTH CENTRAL KENTUCKY

CITY           SKY/WX    TMP DP  RH WIND       PRES   REMARKS
PADUCAH        SUNNY     91  76  61 SE5       29.93F HX 103
HENDERSON      MOSUNNY   91  77  62 SW3       29.93F HX 105
OWENSBORO      MOSUNNY   92  77  61 S6        29.96F HX 105
HOPKINSVILLE   SUNNY     92  75  58 S6        29.96S HX 102
BOWLING GREEN  SUNNY     92  73  53 W6        29.97S HX 100
GLASGOW        NOT AVBL
$$

KYZ024-025-028>034-038-045-046-053-250000-
NORTH CENTRAL KENTUCKY

CITY           SKY/WX    TMP DP  RH WIND       PRES   REMARKS
LOUISVILLE/SDF PTSUNNY   92  72  51 S7        29.96F HX  99
LOUISVILLE/LOU MOSUNNY   93  72  50 SW8       29.96F HX 101
FORT KNOX      PTSUNNY   90  76  61 SW6       29.96F HAZE    HX 101
$$

KYZ035>037-039>044-047>052-055>060-089>105-250000-
NORTHEAST KENTUCKY

CITY           SKY/WX    TMP DP  RH WIND       PRES   REMARKS
LEXINGTON      SUNNY     91  71  51 SW7       30.00F HX  97
COVINGTON      MOSUNNY   91  72  53 SW9       29.98S HX  98
FRANKFORT      SUNNY     91  73  55 SW8       29.97F HX  99
$$

KYZ054-064>069-076>088-106>120-250000-
SOUTHEAST KENTUCKY

CITY           SKY/WX    TMP DP  RH WIND       PRES   REMARKS
JACKSON        CLOUDY    90  75  61 CALM      30.03F HX 100
LONDON         SUNNY     90  68  48 W6        30.02F HX  94
SOMERSET       SUNNY     88  70  55 NW3       30.02S HX  92
MIDDLESBORO    SUNNY     90  75  62 NW3       30.01F HX 100
MONTICELLO     CLEAR    N/A N/A N/A N10       30.03S
$$





USA.gov is the U.S. government's official web portal to all federal, state and local government web resources and services.